TimeCDT,TemperatureF,Dew PointF,Humidity,Sea Level PressureIn,VisibilityMPH,Wind Direction,Wind SpeedMPH,Gust SpeedMPH,PrecipitationIn,Events,Conditions,WindDirDegrees,DateUTC
12:15 AM,75.2,59.0,57,30.04,10.0,South,10.4,-,N/A,,Clear,170,2013-08-28 05:15:00
12:35 AM,73.4,59.0,61,30.04,10.0,South,11.5,-,N/A,,Clear,190,2013-08-28 05:35:00
12:55 AM,73.4,59.0,61,30.05,10.0,South,11.5,-,N/A,,Clear,190,2013-08-28 05:55:00
1:15 AM,73.4,59.0,61,30.05,10.0,South,12.7,-,N/A,,Clear,190,2013-08-28 06:15:00
1:35 AM,73.4,59.0,61,30.04,10.0,South,9.2,-,N/A,,Clear,190,2013-08-28 06:35:00
1:55 AM,71.6,59.0,64,30.04,10.0,SSW,8.1,-,N/A,,Clear,200,2013-08-28 06:55:00
2:15 AM,71.6,59.0,64,30.04,10.0,SSW,6.9,-,N/A,,Clear,200,2013-08-28 07:15:00
2:35 AM,71.6,59.0,64,30.04,10.0,SSW,6.9,-,N/A,,Clear,200,2013-08-28 07:35:00
2:55 AM,69.8,59.0,68,30.04,10.0,South,9.2,-,N/A,,Clear,190,2013-08-28 07:55:00
3:15 AM,71.6,59.0,64,30.04,10.0,South,9.2,-,N/A,,Clear,180,2013-08-28 08:15:00
3:35 AM,71.6,59.0,64,30.04,10.0,SSE,9.2,16.1,N/A,,Clear,160,2013-08-28 08:35:00
3:55 AM,69.8,59.0,68,30.04,10.0,South,10.4,-,N/A,,Clear,170,2013-08-28 08:55:00
4:15 AM,69.8,59.0,68,30.04,10.0,South,10.4,-,N/A,,Clear,170,2013-08-28 09:15:00
4:35 AM,69.8,59.0,68,30.04,10.0,South,9.2,-,N/A,,Clear,170,2013-08-28 09:35:00
4:55 AM,68.0,59.0,73,30.04,10.0,SSE,9.2,-,N/A,,Clear,160,2013-08-28 09:55:00
5:15 AM,68.0,59.0,73,30.04,10.0,South,9.2,-,N/A,,Clear,170,2013-08-28 10:15:00
5:35 AM,68.0,59.0,73,30.04,10.0,South,9.2,-,N/A,,Clear,180,2013-08-28 10:35:00
5:55 AM,68.0,59.0,73,30.04,10.0,SSW,4.6,-,N/A,,Clear,200,2013-08-28 10:55:00
6:15 AM,64.4,59.0,83,30.04,10.0,SW,4.6,-,N/A,,Clear,230,2013-08-28 11:15:00
6:35 AM,62.6,59.0,88,30.04,10.0,SW,3.5,-,N/A,,Clear,220,2013-08-28 11:35:00
6:55 AM,62.6,59.0,88,30.03,10.0,SW,4.6,-,N/A,,Clear,220,2013-08-28 11:55:00
7:15 AM,60.8,59.0,94,30.05,10.0,South,5.8,-,N/A,,Clear,180,2013-08-28 12:15:00
7:35 AM,62.6,59.0,88,30.05,10.0,South,5.8,-,N/A,,Clear,190,2013-08-28 12:35:00
7:55 AM,64.4,59.0,83,30.06,10.0,South,5.8,-,N/A,,Clear,170,2013-08-28 12:55:00
8:15 AM,66.2,60.8,83,30.06,10.0,South,6.9,-,N/A,,Clear,180,2013-08-28 13:15:00
8:35 AM,68.0,60.8,78,30.06,10.0,South,5.8,-,N/A,,Clear,190,2013-08-28 13:35:00
8:55 AM,69.8,60.8,73,30.07,10.0,SSW,5.8,-,N/A,,Clear,200,2013-08-28 13:55:00
9:15 AM,71.6,62.6,73,30.08,10.0,South,11.5,-,N/A,,Clear,170,2013-08-28 14:15:00
9:35 AM,71.6,62.6,73,30.07,10.0,SSW,9.2,-,N/A,,Clear,200,2013-08-28 14:35:00
9:55 AM,73.4,62.6,69,30.07,10.0,SW,8.1,-,N/A,,Clear,220,2013-08-28 14:55:00
10:15 AM,77.0,62.6,61,30.07,10.0,SSW,5.8,-,N/A,,Clear,210,2013-08-28 15:15:00
10:35 AM,78.8,62.6,57,30.08,10.0,SSE,5.8,-,N/A,,Clear,150,2013-08-28 15:35:00
10:55 AM,80.6,62.6,54,30.08,10.0,South,5.8,-,N/A,,Clear,190,2013-08-28 15:55:00
11:15 AM,82.4,62.6,51,30.08,10.0,South,9.2,-,N/A,,Clear,180,2013-08-28 16:15:00
11:35 AM,86.0,62.6,45,30.08,10.0,SSE,6.9,-,N/A,,Clear,150,2013-08-28 16:35:00
11:55 AM,86.0,62.6,45,30.08,10.0,SSE,9.2,-,N/A,,Clear,150,2013-08-28 16:55:00
12:15 PM,89.6,60.8,38,30.08,10.0,South,9.2,-,N/A,,Clear,190,2013-08-28 17:15:00
12:35 PM,87.8,59.0,38,30.08,10.0,SSE,9.2,-,N/A,,Clear,150,2013-08-28 17:35:00
12:55 PM,87.8,60.8,40,30.08,10.0,SE,15.0,-,N/A,,Clear,130,2013-08-28 17:55:00
1:15 PM,91.4,60.8,36,30.07,10.0,SSE,16.1,20.7,N/A,,Clear,150,2013-08-28 18:15:00
1:35 PM,91.4,62.6,38,30.07,10.0,SSE,12.7,17.3,N/A,,Clear,160,2013-08-28 18:35:00
1:55 PM,91.4,60.8,36,30.06,10.0,SSE,12.7,21.9,N/A,,Clear,160,2013-08-28 18:55:00
2:15 PM,93.2,60.8,34,30.05,10.0,South,6.9,24.2,N/A,,Clear,170,2013-08-28 19:15:00
2:35 PM,93.2,55.4,28,30.05,10.0,SSE,11.5,40.3,N/A,,Clear,160,2013-08-28 19:35:00
2:55 PM,95.0,57.2,28,30.04,10.0,SSE,11.5,17.3,N/A,,Clear,160,2013-08-28 19:55:00
3:15 PM,95.0,59.0,30,30.04,10.0,South,13.8,19.6,N/A,,Clear,170,2013-08-28 20:15:00
3:35 PM,95.0,59.0,30,30.04,10.0,SSE,9.2,20.7,N/A,,Clear,160,2013-08-28 20:35:00
3:55 PM,95.0,57.2,28,30.03,10.0,SSW,6.9,17.3,N/A,,Clear,200,2013-08-28 20:55:00
4:15 PM,95.0,59.0,30,30.02,10.0,SSE,10.4,23.0,N/A,,Clear,160,2013-08-28 21:15:00
4:35 PM,95.0,59.0,30,30.02,10.0,ESE,10.4,-,N/A,,Clear,110,2013-08-28 21:35:00
4:55 PM,96.8,57.2,27,30.02,10.0,South,10.4,20.7,N/A,,Clear,170,2013-08-28 21:55:00
5:15 PM,95.0,55.4,26,30.01,10.0,SE,8.1,-,N/A,,Clear,140,2013-08-28 22:15:00
5:35 PM,96.8,57.2,27,30.01,10.0,SE,6.9,20.7,N/A,,Clear,130,2013-08-28 22:35:00
5:55 PM,95.0,55.4,26,30.01,10.0,SSE,9.2,20.7,N/A,,Clear,150,2013-08-28 22:55:00
6:15 PM,95.0,57.2,28,30.01,10.0,SSE,9.2,17.3,N/A,,Clear,150,2013-08-28 23:15:00
6:35 PM,95.0,57.2,28,30.01,10.0,SE,12.7,20.7,N/A,,Clear,140,2013-08-28 23:35:00
6:55 PM,93.2,59.0,32,30.01,10.0,ESE,13.8,-,N/A,,Clear,120,2013-08-28 23:55:00
7:15 PM,91.4,59.0,34,30.01,10.0,ESE,12.7,-,N/A,,Clear,120,2013-08-29 00:15:00
7:35 PM,89.6,59.0,36,30.02,10.0,ESE,11.5,-,N/A,,Clear,120,2013-08-29 00:35:00
7:55 PM,87.8,59.0,38,30.02,10.0,ESE,10.4,-,N/A,,Clear,120,2013-08-29 00:55:00
8:15 PM,86.0,59.0,40,30.03,10.0,ESE,8.1,-,N/A,,Clear,120,2013-08-29 01:15:00
8:35 PM,82.4,59.0,45,30.03,10.0,SE,8.1,-,N/A,,Clear,130,2013-08-29 01:35:00
8:55 PM,82.4,59.0,45,30.04,10.0,ESE,9.2,-,N/A,,Clear,120,2013-08-29 01:55:00
9:15 PM,80.6,60.8,51,30.04,10.0,ESE,10.4,-,N/A,,Clear,120,2013-08-29 02:15:00
9:35 PM,80.6,62.6,54,30.05,10.0,SE,9.2,-,N/A,,Clear,130,2013-08-29 02:35:00
9:55 PM,78.8,62.6,57,30.05,10.0,SE,10.4,-,N/A,,Clear,130,2013-08-29 02:55:00
10:15 PM,78.8,62.6,57,30.06,10.0,SE,11.5,-,N/A,,Clear,130,2013-08-29 03:15:00
10:35 PM,78.8,62.6,57,30.06,10.0,SE,11.5,-,N/A,,Clear,130,2013-08-29 03:35:00
10:55 PM,78.8,62.6,57,30.07,10.0,SE,13.8,18.4,N/A,,Clear,140,2013-08-29 03:55:00
11:15 PM,78.8,64.4,61,30.07,10.0,SE,12.7,-,N/A,,Clear,140,2013-08-29 04:15:00
11:35 PM,77.0,64.4,65,30.07,10.0,SE,12.7,-,N/A,,Clear,140,2013-08-29 04:35:00
11:55 PM,77.0,66.2,69,30.07,10.0,SE,12.7,-,N/A,,Clear,140,2013-08-29 04:55:00